This demonstration page uses our WeatherBlox Daily Observations layout. Learn more.

Left ArrowRight Arrow

39.12711, -84.51439

Hourly Observations for August 12, 2016

Temp ( °F °C ) Dew Point ( °F °C ) Humidity (%) Winds ( mph kmh ) Pressure ( in mb ) Visibility ( mi km ) Precip ( " mm )
12:53 am 00:53 Clear 74 23.3 74 23.3 100 100 N N/A 29.96 1015 10 16 N/A
1:53 am 01:53 Clear 74 23.3 74 23.3 100 100 N N/A 29.98 1015 10 16 N/A
2:53 am 02:53 Clear 74 23.3 74 23.3 100 100 N N/A 29.97 1015 10 16 N/A
3:48 am 03:48 Mostly Clear with Mist and Fog 73 23 73 23 100 100 N N/A 29.94 1014 2 3 N/A
3:53 am 03:53 Mostly Clear with Mist and Fog 73 22.8 73 22.8 100 100 N N/A 29.96 1015 2 3 N/A
4:01 am 04:01 Mostly Clear with Mist and Fog 73 22.8 73 22.8 100 100 N N/A 29.94 1014 6 10 N/A
4:53 am 04:53 Mostly Clear 74 23.3 74 23.3 100 100 N N/A 29.96 1014 9 14 N/A
5:31 am 05:31 Mostly Cloudy with Mist and Fog 73 22.8 73 22.8 100 100 N N/A 29.94 1014 2 3 N/A
5:47 am 05:47 Mostly Cloudy with Mist and Fog 73 23 73 23 100 100 N N/A 29.94 1014 3 5 N/A
5:53 am 05:53 Mostly Cloudy 74 23.3 74 23.3 100 100 N N/A 29.95 1014 7 11 N/A
6:53 am 06:53 Sunny 74 23.3 74 23.3 100 100 S 3 6 29.95 1014 10 16 N/A
7:53 am 07:53 Sunny 76 24.4 74 23.3 94 94 N N/A 29.96 1015 10 16 N/A
8:53 am 08:53 Sunny 80 26.7 75 23.9 85 85 S 5 7 29.96 1014 10 16 N/A
9:53 am 09:53 Mostly Sunny 84 28.9 75 23.9 74 74 SW 8 13 29.95 1014 10 16 N/A
10:53 am 10:53 Partly Cloudy 86 30 75 23.9 70 70 SSW 7 11 29.94 1014 10 16 N/A
11:53 am 11:53 Mostly Cloudy 86 30 75 23.9 70 70 SSW 12 19 29.93 1014 10 16 N/A
12:53 pm 12:53 Mostly Sunny 89 31.7 76 24.4 65 65 SSW 7 11 29.92 1013 10 16 N/A
1:53 pm 13:53 Cloudy 86 30 74 23.3 67 67 SW 14 22 29.91 1013 10 16 N/A
2:53 pm 14:53 Mostly Cloudy 86 30 74 23.3 67 67 SSW 12 19 29.91 1013 10 16 N/A
3:53 pm 15:53 Mostly Cloudy 88 31.1 75 23.9 66 66 SSW 16 26 29.89 1012 10 16 N/A
4:53 pm 16:53 Mostly Cloudy 86 30 77 25 75 75 S 8 13 29.88 1012 10 16 N/A
5:53 pm 17:53 Cloudy 86 30 75 23.9 70 70 SW 9 15 29.88 1012 10 16 N/A
6:53 pm 18:53 Mostly Cloudy 85 29.4 76 24.4 75 75 SSW 7 11 29.86 1011 10 16 N/A
7:53 pm 19:53 Mostly Cloudy 85 29.4 76 24.4 75 75 SSW 7 11 29.84 1011 10 16 N/A
8:53 pm 20:53 Clear 81 27.2 77 25 88 88 N N/A 29.86 1011 10 16 N/A
9:53 pm 21:53 Mostly Cloudy 80 26.7 77 25 90 90 N N/A 29.89 1012 10 16 N/A
10:53 pm 22:53 Mostly Clear 78 25.6 77 25 97 97 S 5 7 29.90 1012 10 16 N/A
11:53 pm 23:53 Clear 78 25.6 77 25 97 97 N N/A 29.89 1012 10 16 N/A

Powered by AerisWeather